Regional Weather Roundup
Issued by NWS

Home | Current Version | Previous Version | Graphics & Text | Print | Product List | Glossary On
Versions: 1 2 3 4 5 6 7 8 9 10 11 12 13 14 15 16 17 18 19 20 21 22 23 24 25 26 27 28 29 30 31 32 33 34 35 36 37 38 39 40 41 42 43 44 45 46 47 48 49 50
000
ASUS43 KLOT 250408
RWRIL

ILLINOIS REGIONAL WEATHER ROUNDUP
NATIONAL WEATHER SERVICE CHICAGO/ROMEOVILLE IL
1000 PM CST FRI FEB 24 2017

NOTE: "FAIR" INDICATES FEW OR NO CLOUDS BELOW 12,000 FEET WITH NO
SIGNIFICANT WEATHER AND/OR OBSTRUCTIONS TO VISIBILITY.

* THESE STATIONS ARE NOT UNDER NWS QUALITY CONTROL. THEY ALSO MAY NOT
  REPORT WEATHER SUCH AS PRECIPITATION OR FOG.

ILZ001-002-007-009-015-016-024-250500-
NORTHWEST ILLINOIS

CITY           SKY/WX    TMP DP  RH WIND       PRES   REMARKS
MOLINE         LGT SNOW  33  28  81 NW9       29.70R WCI  25
STERLING*      FLURRIES  31  29  92 NW14      29.67R WCI  21
$$

ILZ003-004-008-010-011-017-018-250500-
NORTH CENTRAL ILLINOIS

CITY           SKY/WX    TMP DP  RH WIND       PRES   REMARKS
ROCKFORD       FRZ DRZL  30  26  85 N10       29.64S WCI  21
FREEPORT*      FLURRIES  28  26  91 NW13      29.66R WCI  17
ROCHELLE*      LGT SNOW  30  29  96 NW12      29.63S WCI  21
DE KALB*       FLURRIES  30  29  94 NW9       29.61S WCI  22
PERU*          LGT SNOW  32  29  90 NW12      29.65R WCI  23
$$

ILZ005-006-012>014-019>023-250500-
NORTHEAST ILLINOIS

CITY           SKY/WX    TMP DP  RH WIND       PRES   REMARKS
CHICAGO-OHARE  CLOUDY    35  31  85 NW9       29.58R WCI  28
CHICAGO-MIDWAY MOCLDY    37  32  82 W9        29.58S WCI  30
AURORA         CLOUDY    33  29  85 NW12      29.60S WCI  24
LANSING*       PTCLDY    38  35  89 W7        29.59S WCI  33
JOLIET*        CLOUDY    36  33  90 NW6       29.61R WCI  31
WAUKEGAN       CLOUDY    32  29  88 NW7       29.58R WCI  26
DUPAGE AIRPORT CLOUDY    32  28  85 NW10      29.59S WCI  24
KANKAKEE*      CLOUDY    40  36  84 W16       29.62R
WHEELING       CLOUDY    33  30  88 NW7       29.60S WCI  27
MORRIS*        CLOUDY    34  32  92 NW9       29.61R WCI  27
ROMEOVILLE*    CLOUDY    33  33 100 NW10      29.60S WCI  25
NORTHERLY ISL    N/A     38  32  79 W8          N/A  WCI  32
$$

LMZ740>746-250500-
SOUTHERN LAKE MICHIGAN

STATION/POSITION SKY/WX   TEMP    WIND        PRES    VSBY  WAVE
                          AIR SEA DIR/SP/G                  HT/PER
                          (F)     (DEG/KT/KT) (MB)    (MI)  (FT/S)
HARRISON CRIB              39     280/ 11/ 12   N/A
BURNHAM HARBOR             38     260/  5/ 13   N/A
CALUMET HARBOR             39     260/  3/  9 1001.3S
BURNS HARBOR               40     260/ 15/ 20 1002.4S
MICHIGAN CITY              36        CALM       N/A
$$

ILZ025>027-034>036-040-047-049-050-058-095>099-250500-
WEST-CENTRAL ILLINOIS

CITY           SKY/WX    TMP DP  RH WIND       PRES   REMARKS
QUINCY         FLURRIES  30  27  88 W23G29    29.79R WCI  17
GALESBURG*     LGT SNOW  32  32 100 W12G17    29.69S WCI  23
MACOMB*        LGT SNOW  33  32  98 W22G30    29.74R WCI  20
JACKSONVILLE*  LGT RAIN  34  32  92 W22G28    29.76R WCI  22
PITTSFIELD*    CLOUDY    33  29  86 W16G22    29.80R WCI  23
$$

ILZ028>032-037-038-041>044-048-051>054-059>061-250500-
CENTRAL ILLINOIS

CITY           SKY/WX    TMP DP  RH WIND       PRES   REMARKS
PONTIAC        CLOUDY    39  36  87 W20G25    29.64R WCI  30
BLOOMINGTON    CLOUDY    38  34  85 W18       29.65R WCI  28
DECATUR        CLOUDY    41  32  70 W17G30    29.69R
PEORIA         CLOUDY    37  31  78 W16G22    29.68R WCI  28
LACON*         LGT SNOW  33  32  97 NW9       29.66R WCI  25
LINCOLN*       DRIZZLE   39  36  88 W9        29.69S WCI  33
SPRINGFIELD    CLOUDY    38  32  79 W21G28    29.73R WCI  28
TAYLORVILLE    CLOUDY    38  32  76 W20G31    29.74R WCI  29
$$

ILZ033-039-045-046-055>057-062-063-250500-
EAST-CENTRAL ILLINOIS

CITY           SKY/WX    TMP DP  RH WIND       PRES   REMARKS
CHAMPAIGN      CLOUDY    43  32  65 W25G33    29.67R
RANTOUL*       MOCLDY    43  38  82 W21G26    29.65R
MATTOON        MOCLDY    44  34  67 W10       29.68R
PARIS*         PTCLDY    41  34  76 W14       29.69R
$$

ILZ079-100>102-250500-
SOUTHWEST ILLINOIS

CITY           SKY/WX    TMP DP  RH WIND       PRES   REMARKS
ALTON          CLOUDY    39  30  70 W21       29.79R WCI  29
BELLEVILLE     CLOUDY    43  31  61 NW17G24   29.77R
CAHOKIA*       CLOUDY    42  26  53 W24G32    29.81R
SPARTA*        PTCLDY    44  27  51 W18G28    29.79R
$$

ILZ064>066-069>071-074>076-080>082-084>086-088>090-092>094-250500-
SOUTH-CENTRAL ILLINOIS

CITY           SKY/WX    TMP DP  RH WIND       PRES   REMARKS
CARBONDALE     CLEAR     45  34  65 W7        29.78R
CAIRO*         PTCLDY    49  33  54 W10       29.78R
EFFINGHAM*     MOCLDY    44  33  66 SW10G20   29.73S
MARION         CLEAR     46  36  66 NW5       29.77S
MT. VERNON     PTCLDY    45  31  58 W9G16     29.76R
CENTRALIA*     PTCLDY    43  34  70 W10       29.75S
SALEM*         CLEAR     44  31  60 W12       29.75R
METROPOLIS*    CLEAR     53  32  45 W14G20    29.77R
$$

ILZ067-068-072-073-078-083-087-091-250500-
SOUTHEAST ILLINOIS

CITY           SKY/WX    TMP DP  RH WIND       PRES   REMARKS
LAWRENCEVILLE  MOCLDY    47  40  76 W9        29.73R
FLORA*         CLEAR     46  31  56 W14G21    29.74R
FAIRFIELD*     CLEAR     45  32  61 W5        29.74S
HARRISBURG*    CLEAR     46  37  69 NW12      29.76R
ROBINSON*      PTCLDY    42  36  79 W6        29.73R
CARMI*         MOCLDY    46  38  73 NW18      29.74R
$$

ABBREVIATIONS USED IN REMARKS
   TC - TEMPERATURE IN CELSIUS
  WCI - WIND CHILL INDEX
   HX - HEAT INDEX
  VSB - VISIBILITY
$$




USA.gov is the U.S. government's official web portal to all federal, state and local government web resources and services.